Home > Weather > Corvallis > Past weeks

Flag for USA Past Weather in Corvallis, Oregon, USA — Yesterday and Last 2 Weeks

Now
84 °F

Pleasantly warm.


Feels Like: 82 °F
Forecast: 61 / 96 °F
Wind: 9 mph from Northeast

Location: Corvallis Municipal

Current Time: Aug 25, 2016 at 11:43:04 AM

Latest Report: Aug 25, 2016 at 11:15 AM


Visibility: 10 mi

Pressure: 30.03 "Hg

Humidity: 27%

Dew Point: 46 °F

Location of CorvallisLocation

Past Weather in Corvallis — Graph

°F

Corvallis Temperature Yesterday

Maximum temperature yesterday: 93 °F (at 3:35 PM)
Minimum temperature yesterday: 50 °F (at 4:55 AM)
Average temperature yesterday: 74 °F

High & Low Weather Summary for the Past Weeks

 TemperatureHumidityPressure
High102 °F (Aug 19, 2:15 PM)94% (Aug 11, 5:35 AM)30.19 "Hg (Aug 11, 5:35 AM)
Low48 °F (Aug 21, 6:55 AM)15% (Aug 19, 4:15 PM)29.82 "Hg (Aug 18, 6:35 PM)
Average72 °F54%30.01 "Hg
* Reported Aug 10 10:15 AM — Aug 25 10:35 AM, Corvallis, Weather by CustomWeather, © 2016

Note: Actual official high and low records may vary slightly from our data, if they occured in-between our weather recording intervals... More about our weather records

Advertising

Corvallis Weather History for the Previous 24 Hours

Scroll right to see more
 ConditionsComfort  
Time TempWeatherWind HumidityBarometerVisibility
10:35 AM
Thu, Aug 25
82 °FPleasantly warm.13 mph28%30.04 "Hg10 mi
10:15 AM81 °FPleasantly warm.9 mph32%30.05 "Hg10 mi
9:55 AM79 °FPleasantly warm.9 mph34%30.05 "Hg10 mi
9:35 AM73 °FMild.No wind41%30.06 "Hg10 mi
9:15 AM72 °FMild.No wind44%30.06 "Hg10 mi
8:55 AM70 °FMild.No wind46%30.06 "Hg10 mi
8:35 AM66 °FMild.No wind52%30.06 "Hg10 mi
8:15 AM64 °FMild.3 mph52%30.07 "Hg10 mi
7:55 AM61 °FRefreshingly cool.No wind59%30.07 "Hg10 mi
7:35 AM57 °FCool.No wind67%30.07 "Hg10 mi
7:15 AM55 °FCool.No wind67%30.06 "Hg10 mi
6:55 AM55 °FCool.No wind67%30.06 "Hg10 mi
6:35 AM54 °FCool.3 mph72%30.06 "Hg10 mi
6:15 AM54 °FCool.3 mph72%30.05 "Hg10 mi
5:55 AM55 °FCool.No wind67%30.05 "Hg10 mi
5:35 AM54 °FCool.3 mph72%30.05 "Hg10 mi
5:15 AM55 °FCool.6 mph67%30.04 "Hg10 mi
4:55 AM64 °FMild.5 mph49%30.04 "Hg10 mi
4:35 AM59 °FRefreshingly cool.No wind59%30.05 "Hg10 mi
4:15 AM61 °FRefreshingly cool.No wind59%30.05 "Hg10 mi
3:55 AM63 °FMild.3 mph56%30.05 "Hg10 mi
3:35 AM61 °FRefreshingly cool.5 mph59%30.04 "Hg10 mi
3:15 AM59 °FRefreshingly cool.7 mph59%30.04 "Hg10 mi
2:55 AM61 °FRefreshingly cool.5 mph55%30.04 "Hg10 mi
2:35 AM63 °FMild.No wind56%30.05 "Hg10 mi
2:15 AM66 °FMild.No wind46%30.05 "Hg10 mi
1:55 AM66 °FMild.3 mph49%30.05 "Hg10 mi
1:35 AM68 °FMild.6 mph43%30.05 "Hg10 mi
1:15 AM72 °FMild.5 mph38%30.05 "Hg10 mi
12:55 AM75 °FMild.6 mph34%30.05 "Hg10 mi
12:35 AM75 °FMild.8 mph34%30.05 "Hg10 mi
12:15 AM77 °FPleasantly warm.8 mph32%30.05 "Hg10 mi
11:55 PM
Wed, Aug 24
77 °FPleasantly warm.10 mph34%30.05 "Hg10 mi
11:35 PM79 °FPleasantly warm.10 mph32%30.05 "Hg10 mi
11:15 PM79 °FPleasantly warm.13 mph32%30.05 "Hg10 mi
10:55 PM79 °FPleasantly warm.13 mph32%30.05 "Hg10 mi
10:35 PM81 °FPleasantly warm.12 mph30%30.05 "Hg10 mi
10:15 PM81 °FPleasantly warm.10 mph30%30.05 "Hg10 mi
9:55 PM79 °FPleasantly warm.9 mph32%30.05 "Hg10 mi
9:15 PM81 °FPleasantly warm.6 mph28%30.05 "Hg10 mi
8:55 PM81 °FPleasantly warm.7 mph28%30.04 "Hg10 mi
8:35 PM84 °FPleasantly warm.9 mph25%30.03 "Hg10 mi
8:15 PM84 °FPleasantly warm.10 mph23%30.03 "Hg10 mi
7:55 PM86 °FPleasantly warm.9 mph22%30.03 "Hg10 mi
7:35 PM88 °FPleasantly warm.12 mph21%30.03 "Hg10 mi
7:15 PM90 °FHot.13 mph20%30.03 "Hg10 mi
6:55 PM90 °FHot.13 mph20%30.03 "Hg10 mi
6:35 PM91 °FHot.15 mph18%30.03 "Hg10 mi
6:15 PM91 °FHot.15 mph18%30.03 "Hg10 mi
5:55 PM93 °FExtremely hot.15 mph17%30.03 "Hg10 mi
5:35 PM93 °FExtremely hot.14 mph17%30.04 "Hg10 mi
5:15 PM93 °FExtremely hot.13 mph17%30.04 "Hg10 mi
4:55 PM93 °FExtremely hot.13 mph17%30.04 "Hg10 mi
4:35 PM93 °FExtremely hot.12 mph17%30.05 "Hg10 mi
4:15 PM93 °FExtremely hot.10 mph19%30.05 "Hg10 mi
3:55 PM93 °FExtremely hot.9 mph19%30.06 "Hg10 mi
3:35 PM93 °FExtremely hot.10 mph19%30.07 "Hg10 mi
3:15 PM91 °FHot.10 mph20%30.07 "Hg10 mi
2:55 PM91 °FHot.10 mph20%30.08 "Hg10 mi
2:35 PM91 °FHot.8 mph20%30.09 "Hg9 mi
2:15 PM90 °FHot.13 mph22%30.10 "Hg10 mi
1:55 PM90 °FHot.7 mph24%30.11 "Hg10 mi
1:35 PM88 °FPleasantly warm.8 mph27%30.11 "Hg10 mi
1:15 PM88 °FPleasantly warm.7 mph27%30.12 "Hg9 mi
12:55 PM82 °FPleasantly warm.7 mph32%30.13 "Hg10 mi
12:35 PM84 °FPleasantly warm.9 mph33%30.13 "Hg10 mi
12:15 PM82 °FPleasantly warm.9 mph35%30.14 "Hg10 mi
11:55 AM81 °FPleasantly warm.7 mph37%30.15 "Hg10 mi
11:35 AM81 °FPleasantly warm.7 mph37%30.16 "Hg10 mi
11:15 AM79 °FPleasantly warm.9 mph39%30.16 "Hg10 mi
Weather by CustomWeather, © 2016

See weather overviewHow to use our weather pages